Hourly Data Report for October 07, 2015

All times are specified in Local Standard Time (LST). Add 1 hour to adjust for Daylight Saving Time where and when it is observed.

KUGAARUK CLIMATE
NUNAVUT

68°32'15.060" N
89°47'47.020" W
15.80 m
2303094
71407
NBB

Download Data

Hourly Data (October 2015)
Hourly Data Report for October 7, 2015
Temp Definition
°C
Dew Point Temp Definition
°C
Rel Hum Definition
%
Wind Dir Definition
10's deg

Wind Spd Definition
km/h
Visibility Definition
km
Stn Press Definition
kPa
Hmdx Definition


Wind Chill Definition


Weather Definition


TIME
00:00 -5.8 -7.8 86 24 28   100.45   -14 LegendNANA
01:00 -5.8 -8.3 83 25 29   100.43   -14 LegendNANA
02:00 -6.0 -8.4 84 26 31   100.43   -14 LegendNANA
03:00 -5.9 -8.0 85 25 37   100.40   -15 LegendNANA
04:00 -6.1 -8.2 85 25 31   100.40   -15 LegendNANA
05:00 -5.6 -7.7 85 24 31   100.39   -14 LegendNANA
06:00 -5.2 -7.5 84 25 32   100.36   -13 LegendNANA
07:00 -5.6 -8.4 81 24 29   100.34   -14 LegendNANA
08:00 -5.0 -8.9 74 24 26   100.36   -12 LegendNANA
09:00 -4.8 -7.9 79 22 25   100.33   -12 LegendNANA
10:00 -4.2 -6.8 82 24 32   100.28   -12 LegendNANA
11:00 -3.9 -6.1 85 25 30   100.27   -12 LegendNANA
12:00 -4.2 -7.4 79 28 28   100.29   -12 LegendNANA
13:00 -4.6 -8.8 73 27 25   100.34   -12 LegendNANA
14:00 -4.5 -8.6 73 26 23   100.32   -11 LegendNANA
15:00 -4.6 -7.6 79 25 23   100.30   -12 LegendNANA
16:00 -4.6 -7.2 82 28 24   100.30   -12 LegendNANA
17:00 -4.4 -8.2 75 26 22   100.30   -11 LegendNANA
18:00 -4.5 -7.5 80 25 22   100.30   -11 LegendNANA
19:00 -5.2 -8.5 77 26 32   100.27   -13 LegendNANA
20:00 -5.6 -9.1 76 26 28   100.28   -14 LegendNANA
21:00 -5.9 -9.0 78 25 27   100.27   -14 LegendNANA
22:00 -5.6 -8.2 82 26 29   100.27   -14 LegendNANA
23:00 -6.1 -8.8 81 26 30   100.29   -14 LegendNANA

Notes on Data Quality.

Legend

  • E = Estimated
  • M = Missing
  • NA = Not Available
  • ‡ = Partner data that is not subject to review by the National Climate Archives
Date modified: